Flag for Austria Weather past 2 weeks in Baden, Lower Austria, Austria

Now
57 °F

Clear.


Feels Like: 56 °F
Forecast: 62 / 81 °F
Wind: 6 mph from South

Location: Vienna Schwechat-Flughafen Airport

Current Time: Aug 1, 2015 at 2:37:02 AM

Latest Report: Aug 1, 2015 at 1:50 AM


Visibility: 10 mi

Pressure: 30.04 "Hg

Humidity: 63%

Dew point: 45 °F

Location of BadenLocation

Historic Weather in Baden — Graph

°F

Baden temperature yesterday

Maximum temperature yesterday: 77 °F (at 2:50 PM)
Minimum temperature yesterday: 59 °F (at 11:50 PM)
Average temperature yesterday: 69 °F

Past Weeks' High & Low Weather Summary

 TemperatureHumidityPressure
High97 °F (Jul 19, 2:20 PM)94% (Jul 27, 1:20 AM)30.07 "Hg (Jul 27, 1:20 AM)
Low55 °F (Jul 28, 5:20 AM)19% (Jul 17, 4:50 PM)29.71 "Hg (Jul 25, 5:20 AM)
Average75 °F58%29.91 "Hg
* Reported Jul 17 1:20 AM — Aug 1 1:20 AM, Baden, Weather by CustomWeather, © 2015

Note: Actual official high and low records may vary slightly from our data, if they occured in-between our weather recording intervals... More about our weather records

Advertising

Baden weather history for previous 24 hours

 ConditionsComfort  
Time TempWeatherWind HumidityBarometerVisibility
1:20 AM
Sat, Aug 1
59 °FClear.5 mph63%30.04 "Hg10 mi
12:50 AM61 °FClear.6 mph55%30.04 "Hg10 mi
12:20 AM61 °FClear.8 mph52%30.04 "Hg10 mi
11:50 PM
Fri, Jul 31
59 °FClear.7 mph59%30.04 "Hg10 mi
11:20 PM63 °FClear.8 mph49%30.04 "Hg10 mi
10:50 PM61 °FClear.6 mph55%30.04 "Hg10 mi
10:20 PM64 °FPassing clouds.3 mph49%30.04 "HgN/A
9:50 PM64 °FClear.6 mph49%30.04 "Hg10 mi
9:20 PM68 °FSunny.5 mph38%30.04 "Hg10 mi
8:50 PM70 °FSunny.3 mph38%30.04 "Hg10 mi
8:20 PM72 °FPassing clouds.5 mph36%30.04 "HgN/A
7:50 PM73 °FPassing clouds.5 mph31%30.01 "HgN/A
7:20 PM75 °FPassing clouds.6 mph27%30.01 "HgN/A
6:50 PM75 °FPassing clouds.5 mph27%30.01 "HgN/A
6:20 PM75 °FSunny.7 mph29%30.01 "Hg10 mi
5:50 PM77 °FPassing clouds.6 mph24%30.01 "HgN/A
5:20 PM77 °FPassing clouds.5 mph26%30.01 "HgN/A
4:50 PM77 °FPassing clouds.7 mph26%30.01 "HgN/A
4:20 PM77 °FPassing clouds.9 mph24%30.04 "HgN/A
3:50 PM77 °FPassing clouds.6 mph26%30.04 "HgN/A
3:20 PM77 °FPassing clouds.9 mph26%30.04 "HgN/A
2:50 PM77 °FPassing clouds.9 mph28%30.04 "HgN/A
2:20 PM75 °FPassing clouds.9 mph29%30.04 "HgN/A
1:50 PM75 °FPassing clouds.8 mph29%30.04 "HgN/A
1:20 PM75 °FPassing clouds.9 mph31%30.07 "HgN/A
12:50 PM73 °FPassing clouds.8 mph31%30.07 "HgN/A
12:20 PM73 °FPassing clouds.8 mph31%30.07 "HgN/A
11:50 AM73 °FPassing clouds.8 mph31%30.07 "HgN/A
11:20 AM73 °FPassing clouds.7 mph33%30.07 "HgN/A
10:50 AM72 °FPassing clouds.6 mph36%30.07 "HgN/A
10:20 AM70 °FPassing clouds.6 mph40%30.07 "HgN/A
9:50 AM70 °FScattered clouds.8 mph46%30.07 "HgN/A
9:20 AM66 °FPassing clouds.6 mph60%30.07 "HgN/A
8:50 AM64 °FPassing clouds.5 mph64%30.07 "HgN/A
8:20 AM64 °FPassing clouds.3 mph73%30.07 "HgN/A
7:50 AM63 °FSunny.2 mph77%30.07 "Hg10 mi
7:20 AM63 °FSunny.6 mph73%30.04 "Hg10 mi
6:50 AM61 °FSunny.3 mph77%30.04 "Hg10 mi
5:50 AM64 °FClear.6 mph60%30.04 "Hg10 mi
5:20 AM64 °FPassing clouds.7 mph60%30.04 "HgN/A
4:50 AM64 °FPassing clouds.6 mph60%30.01 "HgN/A
4:20 AM64 °FLight rain. Partly cloudy.6 mph60%30.01 "HgN/A
3:50 AM66 °FLight rain. Passing clouds.8 mph52%30.01 "HgN/A
3:20 AM66 °FClear.9 mph52%30.01 "Hg10 mi
2:50 AM66 °FPassing clouds.5 mph56%30.01 "HgN/A
2:20 AM66 °FClear.8 mph52%30.01 "Hg10 mi
Weather by CustomWeather, © 2015

See weather overviewHow to use our weather pages